SCP
0 0 0 0 0 0 0 0 0 0 0 0 0 0 0 0 0 0 0 0 0 0 0 0 0 0 0 0 0 0 0 0 0 0 0 0 0 0 0 0 0 0 0 0
0 0 0 0 0 0 0 0 0 0 0 0 0 0 0 0 0 0 0 0 0 0 0 0 0 0 0 0 0 0 0 0 0 0 0 0 0 0 0 0 0 0 0 0
0 0 0 0 0 0 0 0 0 0 0 0 0 0 0 0 0 0 0 0 0 0 0 0 0 0 0 0 0 0 0 0 0 0 0 0 0 0 0 0 0 0 0 0
0 0 0 0 0 0 0 0 0 0 0 0 0 0 0 0 0 0 0 0 0 0 0 0 0 0 0 0 0 0 0 0 0 0 0 0 0 0 0 0 0 0 0 0
0 0 0 0 0 0 0 0 0 0 0 0 0 0 0 0 0 0 0 0 0 0 0 0 0 0 0 0 0 0 0 0 0 0 0 0 0 0 0 0 0 0 0 0
0 0 0 0 0 0 0 0 0 0 0 0 0 0 0 0 0 0 0 0 0 0 0 0 0 0 0 0 0 0 0 0 0 0 0 0 0 0 0 0 0 0 0 0
0 0 0 0 0 0 0 0 0 0 0 0 0 0 0 0 0 0 0 0 0 0 0 0 0 0 0 0 0 0 0 0 0 0 0 0 0 0 0 0 0 0 0 0
0 0 0 0 0 0 0 0 0 0 0 0 0 0 0 0 0 0 0 0 0 0 0 0 0 0 0 0 0 0 0 0 0 0 0 0 0 0 0 0 0 0 0 0
0 0 0 0 0 0 0 0 0 0 0 0 0 0 0 0 0 0 0 0 0 0 0 0 0 0 0 0 0 0 0 0 0 0 0 0 0 0 0 0 0 0 0 0
0 0 0 0 0 0 0 0 0 0 0 0 0 0 0 0 0 0 0 0 0 0 0 0 0 0 0 0 0 0 0 0 0 0 0 0 0 0 0 0 0 0 0 -0
0 0 0 0 0 0 0 0 0 0 0 0 0 0 0 0 0 0 0 0 0 0 0 0 0 0 0 0 0 0 0 0 0 0 0 0 0 0 0 0 0 0 0 -0
0 0 0 0 0 0 0 0 0 0 0 0 0 0 0 0 0 0 0 0 0 0 0 0 0 0 0 0 0 0 0 0 0 0 0 0 0 0 0 0 0 -0 -0 -0
0 0 0 0 0 0 0 0 0 0 0 0 0 0 0 0 0 0 0 0 0 0 0 0 0 0 0 0 0 0 0 0 0 0 0 0 0 0 0 0 0 0 -0 -0
0 0 0 0 0 0 0 0 0 0 0 0 0 0 0 0 0 0 0 0 0 0 0 0 0 0 0 0 0 0 0 0 0 0 0 0 0 0 0 0 0 0 0 -0
0 0 0 0 0 0 0 0 0 0 0 0 0 0 0 0 0 0 0 0 0 0 0 0 0 0 0 0 0 0 0 0 0 0 0 0 0 0 0 0 0 0 0 0
0 0 0 0 0 0 0 0 0 0 0 0 0 0 0 0 0 0 0 0 0 0 0 0 0 0 0 0 0 0 0 0 0 0 0 0 0 0 0 0 0 0 -0 -0
0 0 0 0 0 0 0 0 0 0 0 0 0 0 0 0 0 0 0 0 0 0 0 0 0 0 0 0 0 0 0 0 0 0 0 0 0 0 0 0 0 0 0 -0
0 0 0 0 0 0 0 0 0 0 0 0 0 0 0 0 0 0 0 0 0 0 0 0 0 0 0 0 0 0 0 0 0 0 0 0 0 0 0 0 0 0 0 -0
0 0 0 0 0 0 0 0 0 0 0 0 0 0 0 0 0 0 0 0 0 0 0 0 0 0 0 0 0 0 0 0 0 0 0 0 0 0 0 0 0 0 0 -0
0 0 0 0 0 0 0 0 0 0 0 0 0 0 0 0 0 0 0 0 0 0 0 0 0 0 0 0 0 0 0 0 0 0 0 0 0 0 0 0 0 -0 0 0
-0 -0 0 0 0 0 0 0 0 0 0 0 0 0 0 0 0 0 0 0 0 0 0 0 0 0 0 0 0 0 0 0 0 0 0 0 0 0 0 0 0 -0 -0 0
0 0 0 0 0 0 0 0 0 0 0 0 0 0 0 0 0 0 0 0 0 0 0 0 0 0 0 0 0 0 0 0 0 0 0 0 0 0 0 0 0 0 -0 -0
0 0 0 0 0 0 0 0 0 0 0 0 0 0 0 0 0 0 0 0 0 0 0 0 0 0 0 0 0 0 0 0 0 0 0 0 0 0 0 0 0 0 -0 -0
0 0 0 0 0 0 0 0 0 0 0 0 0 0 0 0 0 0 0 0 0 0 0 0 0 0 0 0 0 0 0 0 0 0 0 0 0 0 0 0 0 0 0 -0
0 0 0 0 0 0 0 0 0 0 0 0 0 0 0 0 0 0 0 0 0 0 0 0 0 0 0 0 0 0 0 0 0 0 0 0 0 0 0 0 0 0 0 0
-0 -0 0 0 0 0 0 0 0 0 0 0 0 0 0 0 0 0 0 0 0 0 0 0 0 0 0 0 0 0 0 0 0 0 0 0 0 0 0 0 0 0 0 0
0 0 0 0 0 0 0 0 0 0 0 0 0 0 0 0 0 0 0 0 0 0 0 0 0 0 0 0 0 0 0 0 0 0 0 0 0 0 0 0 0 0 0 0
Wind_Speed_500mb
43 56 12 15 26 33 40 57 36 68 54 78 54 61 58 64 61 52 58 61 72 87 96 81 67 51 38 30 30 36 43 50 59 66 72 76 79 80 82 82 86 89 93 92
48 40 17 18 63 35 48 52 48 57 73 62 62 85 72 83 57 53 58 66 73 84 98 77 56 41 31 27 29 35 44 55 63 70 74 76 75 78 80 81 83 88 91 93
50 9 13 15 61 60 68 52 51 52 83 63 60 52 53 60 57 64 64 63 70 81 92 72 50 35 26 24 27 34 45 56 65 73 76 75 75 75 77 82 86 89 89 88
30 8 30 63 42 21 39 60 53 59 62 63 56 76 52 57 62 65 61 57 64 75 80 61 44 32 24 21 25 36 47 57 65 71 72 71 72 72 76 82 86 87 88 85
26 33 49 52 24 15 20 50 48 38 57 59 73 28 73 74 75 71 60 59 65 73 75 57 43 32 20 17 25 36 47 58 65 68 68 69 70 71 75 84 88 89 85 82
31 32 46 66 30 18 8 42 75 47 50 45 15 13 38 35 43 53 51 58 64 77 68 53 40 27 15 15 23 35 47 57 61 63 64 65 66 69 73 80 87 89 91 88
47 46 34 50 19 24 20 79 10 48 50 30 22 36 27 17 33 45 50 58 71 74 61 49 37 24 15 15 22 35 45 49 52 56 58 59 63 64 72 80 86 90 93 92
20 28 45 13 17 40 70 95 54 31 46 48 64 47 48 32 38 50 60 74 77 70 60 50 37 27 18 14 23 34 40 44 45 45 49 53 59 62 68 76 86 92 92 93
28 17 13 37 52 116 122 89 77 42 52 63 61 61 52 50 52 62 77 82 75 68 60 48 38 28 17 15 21 30 34 36 40 41 45 48 56 62 68 74 79 87 85 86
43 34 41 52 93 99 102 100 95 77 78 68 69 66 62 62 69 79 83 81 75 65 55 46 35 23 16 14 21 27 29 33 37 40 40 43 50 58 63 68 75 78 86 85
43 49 47 71 100 106 75 78 84 91 78 71 70 69 75 73 80 88 88 79 70 64 55 44 32 22 15 15 21 22 25 29 32 36 41 41 43 55 59 56 53 61 70 78
37 59 41 63 113 94 79 93 105 94 84 79 82 82 81 80 90 95 91 81 71 64 54 43 32 22 14 16 20 20 21 25 30 35 39 44 49 44 46 55 56 50 53 63
49 92 94 100 88 91 86 100 107 105 100 100 90 85 87 91 97 96 89 81 75 66 54 44 33 22 14 15 18 18 20 24 27 31 36 43 48 56 65 53 59 65 66 65
113 101 79 91 76 91 76 78 85 96 94 102 97 91 89 95 93 92 88 74 75 65 56 45 34 23 16 12 14 15 18 22 24 28 33 38 45 52 58 66 75 75 73 81
101 107 115 117 90 85 76 67 71 82 82 83 87 97 101 94 91 88 80 83 76 65 56 46 36 25 17 11 9 9 12 16 18 22 29 35 40 46 52 56 63 71 74 78
90 88 92 82 80 77 64 69 79 82 87 86 91 102 100 92 89 88 79 87 86 75 60 47 36 25 17 11 8 4 7 9 13 19 24 29 37 43 49 53 59 66 71 78
64 51 75 73 77 77 96 101 94 89 86 87 96 103 96 92 86 77 85 88 76 63 54 44 34 26 17 13 7 3 3 6 10 16 20 29 35 41 46 50 54 58 63 66
117 104 90 81 87 71 75 85 85 86 92 95 105 102 98 97 90 78 90 85 72 63 55 44 35 26 20 15 11 8 4 2 7 12 19 25 31 37 40 44 48 52 55 60
63 69 77 77 81 80 81 79 83 85 84 94 101 99 94 91 87 85 92 87 79 70 60 48 37 28 21 18 15 11 8 5 6 10 17 22 26 32 37 41 45 48 52 56
79 75 75 74 72 67 66 67 76 84 83 90 93 97 96 89 84 92 94 85 74 64 55 46 36 30 25 24 21 15 11 8 5 8 13 18 22 28 34 38 41 44 47 50
72 67 61 59 54 57 60 73 78 77 79 81 90 96 90 87 89 95 90 80 69 62 52 44 37 31 30 27 24 19 15 10 7 8 10 14 20 25 30 34 38 42 44 46
54 39 31 36 45 54 60 69 72 76 76 73 73 78 82 89 90 88 78 78 75 63 53 45 39 35 31 29 25 21 17 13 9 7 9 12 18 22 26 30 34 38 41 43
34 30 44 52 57 55 52 60 72 67 61 66 72 78 86 89 88 88 80 71 64 58 49 44 39 37 35 32 26 22 17 12 8 7 7 10 14 19 23 26 30 34 36 39
25 39 46 49 52 57 64 56 53 50 56 57 59 67 78 83 81 72 63 67 59 50 47 44 41 40 36 29 25 23 18 13 7 4 4 7 11 15 18 22 25 29 32 35
29 42 51 54 61 63 59 53 51 51 50 52 57 62 62 65 67 69 60 59 54 50 47 44 42 40 35 30 26 22 19 16 12 6 0 4 6 9 12 16 19 22 26 30
34 42 45 47 54 53 54 53 56 55 54 57 53 50 51 52 50 54 54 52 51 49 45 44 41 38 34 30 27 24 20 17 13 9 6 6 8 10 12 14 16 19 22 25
49 50 54 55 49 45 44 44 48 52 49 52 57 53 50 51 51 49 48 50 48 45 40 36 35 34 30 28 25 22 20 16 12 10 10 12 13 15 16 17 18 20 21 24
Wind_Direction_500mb
245 255 181 211 236 217 216 228 219 250 244 254 264 265 274 281 278 259 246 239 233 221 212 211 213 220 234 254 277 295 306 314 318 322 324 324 326 326 324 325 322 320 319 317
254 255 197 249 255 240 231 237 243 252 259 260 268 277 281 278 275 255 246 244 236 223 213 208 211 220 238 262 282 303 316 320 324 324 327 328 328 327 327 326 325 324 325 324
251 196 118 270 247 240 255 240 232 244 252 273 271 267 264 269 254 253 251 241 227 221 212 204 208 221 240 263 292 312 320 323 327 329 330 330 330 331 330 329 330 333 331 329
248 92 228 250 269 206 231 251 239 245 261 260 263 272 275 264 255 252 243 233 224 217 201 198 203 216 236 270 303 317 322 327 331 329 330 331 332 335 333 333 337 337 337 339
230 232 252 284 220 160 200 265 247 219 244 254 259 288 281 265 262 259 252 236 223 211 192 192 201 210 231 278 311 321 328 331 331 330 332 335 335 338 339 338 339 340 342 342
233 239 244 248 266 156 104 269 260 221 240 243 148 240 259 273 259 236 226 218 206 189 186 190 196 205 230 282 309 324 331 334 333 333 336 337 337 340 344 342 342 342 343 348
232 243 247 253 141 135 192 251 155 210 224 227 195 219 244 248 210 211 209 199 186 181 183 188 192 200 227 275 309 324 330 330 331 334 337 336 339 345 346 345 344 347 346 346
231 246 254 177 136 210 240 256 263 230 224 202 222 223 224 218 200 194 187 178 180 179 183 187 191 203 223 269 308 323 328 330 331 335 338 341 342 346 351 348 349 349 346 339
200 207 208 195 218 228 238 245 246 234 237 228 223 218 211 200 194 187 181 178 182 186 185 187 194 206 226 273 311 322 328 330 331 339 344 347 347 350 354 353 354 350 339 336
240 232 233 226 228 234 233 235 242 246 249 240 222 220 207 198 190 184 183 183 183 186 186 191 197 204 236 287 315 326 329 331 333 342 349 355 352 354 1 357 357 344 339 337
242 244 245 249 245 244 240 243 235 236 240 231 226 223 210 196 192 188 185 185 187 188 190 192 197 209 241 291 313 323 326 330 338 347 351 359 6 1 5 5 353 343 341 338
229 229 225 241 249 250 240 234 236 233 226 228 233 223 208 198 194 189 186 186 186 189 190 193 198 210 240 286 308 316 327 337 344 354 356 359 359 11 14 11 12 0 351 348
237 239 253 252 253 258 241 238 240 231 230 231 224 225 206 194 190 188 186 188 193 191 189 194 199 206 239 281 300 317 335 344 352 357 358 4 3 3 3 15 18 19 15 0
241 246 251 250 251 254 250 248 242 239 232 228 225 213 203 188 188 188 186 192 191 190 191 192 196 205 232 266 295 317 337 346 357 359 2 6 7 8 8 9 9 15 24 22
240 242 244 252 261 256 253 240 221 219 218 212 211 205 194 186 186 188 185 192 187 189 190 191 194 205 224 246 276 309 334 346 357 2 5 6 9 12 14 14 15 15 16 26
247 247 248 250 248 252 241 224 221 210 207 199 196 196 188 187 189 185 190 190 187 188 190 191 195 202 214 229 251 288 319 339 3 11 7 7 12 16 19 20 20 21 22 26
250 249 249 252 250 239 230 232 221 206 200 201 196 186 183 184 183 186 190 188 186 186 187 189 192 197 198 216 218 238 296 359 15 17 11 17 17 20 23 23 25 26 26 30
254 254 258 259 255 239 229 228 223 208 197 187 189 185 182 182 185 188 188 184 179 179 182 187 192 190 196 201 193 203 189 77 36 22 24 24 23 25 26 27 26 26 28 30
280 268 263 261 257 239 232 218 204 193 186 188 184 184 184 183 190 190 185 183 182 182 183 185 185 184 192 192 187 190 173 128 62 40 37 33 31 30 29 31 30 28 26 27
277 268 262 259 251 240 216 204 196 188 189 185 181 180 181 185 190 186 185 184 185 185 184 183 181 183 192 187 183 183 169 142 104 63 50 44 40 38 35 32 32 30 29 28
286 275 267 252 225 213 212 201 195 185 180 182 178 182 184 185 185 185 182 181 180 183 182 181 182 185 188 183 182 180 173 157 130 90 63 51 50 46 40 35 31 31 30 29
280 253 222 198 188 176 183 186 182 170 163 171 179 185 180 177 177 179 185 185 181 181 181 181 180 183 187 184 183 181 179 164 141 105 72 54 53 48 45 39 34 31 29 27
228 206 175 171 170 160 161 160 155 157 167 175 178 179 179 177 181 179 178 180 185 181 179 179 180 184 184 184 184 183 184 171 152 125 97 69 54 49 43 39 33 28 25 25
163 169 163 156 148 145 136 139 147 159 166 167 173 179 180 176 176 182 182 177 176 177 178 180 182 183 182 187 189 189 182 174 170 157 96 63 51 39 36 32 26 21 18 18
115 120 127 134 134 127 132 140 148 151 156 162 169 173 177 178 182 173 175 176 175 177 179 180 183 183 186 190 194 196 188 187 183 188 242 7 15 12 13 15 13 11 9 9
106 104 110 116 119 129 137 144 147 150 158 156 156 161 166 168 170 170 168 172 173 177 181 184 185 187 191 195 198 200 203 198 200 206 235 281 306 322 334 343 347 350 353 355
96 101 103 104 108 118 130 138 143 142 151 152 149 150 156 158 161 165 166 169 173 176 179 184 190 194 198 203 207 210 216 216 224 239 260 278 290 300 309 317 324 329 333 336
Wind_Speed_850mb
43 56 12 15 26 33 40 57 36 68 54 78 54 61 58 64 61 52 58 61 72 87 96 81 67 51 38 30 30 36 43 50 59 66 72 76 79 80 82 82 86 89 93 92
48 40 17 18 63 35 48 52 48 57 73 62 62 85 72 83 57 53 58 66 73 84 98 77 56 41 31 27 29 35 44 55 63 70 74 76 75 78 80 81 83 88 91 93
50 9 13 15 61 60 68 52 51 52 83 63 60 52 53 60 57 64 64 63 70 81 92 72 50 35 26 24 27 34 45 56 65 73 76 75 75 75 77 82 86 89 89 88
30 8 30 63 42 21 39 60 53 59 62 63 56 76 52 57 62 65 61 57 64 75 80 61 44 32 24 21 25 36 47 57 65 71 72 71 72 72 76 82 86 87 88 85
26 33 49 52 24 15 20 50 48 38 57 59 73 28 73 74 75 71 60 59 65 73 75 57 43 32 20 17 25 36 47 58 65 68 68 69 70 71 75 84 88 89 85 82
31 32 46 66 30 18 8 42 75 47 50 45 15 13 38 35 43 53 51 58 64 77 68 53 40 27 15 15 23 35 47 57 61 63 64 65 66 69 73 80 87 89 91 88
47 46 34 50 19 24 20 79 10 48 50 30 22 36 27 17 33 45 50 58 71 74 61 49 37 24 15 15 22 35 45 49 52 56 58 59 63 64 72 80 86 90 93 92
20 28 45 13 17 40 70 95 54 31 46 48 64 47 48 32 38 50 60 74 77 70 60 50 37 27 18 14 23 34 40 44 45 45 49 53 59 62 68 76 86 92 92 93
28 17 13 37 52 116 122 89 77 42 52 63 61 61 52 50 52 62 77 82 75 68 60 48 38 28 17 15 21 30 34 36 40 41 45 48 56 62 68 74 79 87 85 86
43 34 41 52 93 99 102 100 95 77 78 68 69 66 62 62 69 79 83 81 75 65 55 46 35 23 16 14 21 27 29 33 37 40 40 43 50 58 63 68 75 78 86 85
43 49 47 71 100 106 75 78 84 91 78 71 70 69 75 73 80 88 88 79 70 64 55 44 32 22 15 15 21 22 25 29 32 36 41 41 43 55 59 56 53 61 70 78
37 59 41 63 113 94 79 93 105 94 84 79 82 82 81 80 90 95 91 81 71 64 54 43 32 22 14 16 20 20 21 25 30 35 39 44 49 44 46 55 56 50 53 63
49 92 94 100 88 91 86 100 107 105 100 100 90 85 87 91 97 96 89 81 75 66 54 44 33 22 14 15 18 18 20 24 27 31 36 43 48 56 65 53 59 65 66 65
113 101 79 91 76 91 76 78 85 96 94 102 97 91 89 95 93 92 88 74 75 65 56 45 34 23 16 12 14 15 18 22 24 28 33 38 45 52 58 66 75 75 73 81
101 107 115 117 90 85 76 67 71 82 82 83 87 97 101 94 91 88 80 83 76 65 56 46 36 25 17 11 9 9 12 16 18 22 29 35 40 46 52 56 63 71 74 78
90 88 92 82 80 77 64 69 79 82 87 86 91 102 100 92 89 88 79 87 86 75 60 47 36 25 17 11 8 4 7 9 13 19 24 29 37 43 49 53 59 66 71 78
64 51 75 73 77 77 96 101 94 89 86 87 96 103 96 92 86 77 85 88 76 63 54 44 34 26 17 13 7 3 3 6 10 16 20 29 35 41 46 50 54 58 63 66
117 104 90 81 87 71 75 85 85 86 92 95 105 102 98 97 90 78 90 85 72 63 55 44 35 26 20 15 11 8 4 2 7 12 19 25 31 37 40 44 48 52 55 60
63 69 77 77 81 80 81 79 83 85 84 94 101 99 94 91 87 85 92 87 79 70 60 48 37 28 21 18 15 11 8 5 6 10 17 22 26 32 37 41 45 48 52 56
79 75 75 74 72 67 66 67 76 84 83 90 93 97 96 89 84 92 94 85 74 64 55 46 36 30 25 24 21 15 11 8 5 8 13 18 22 28 34 38 41 44 47 50
72 67 61 59 54 57 60 73 78 77 79 81 90 96 90 87 89 95 90 80 69 62 52 44 37 31 30 27 24 19 15 10 7 8 10 14 20 25 30 34 38 42 44 46
54 39 31 36 45 54 60 69 72 76 76 73 73 78 82 89 90 88 78 78 75 63 53 45 39 35 31 29 25 21 17 13 9 7 9 12 18 22 26 30 34 38 41 43
34 30 44 52 57 55 52 60 72 67 61 66 72 78 86 89 88 88 80 71 64 58 49 44 39 37 35 32 26 22 17 12 8 7 7 10 14 19 23 26 30 34 36 39
25 39 46 49 52 57 64 56 53 50 56 57 59 67 78 83 81 72 63 67 59 50 47 44 41 40 36 29 25 23 18 13 7 4 4 7 11 15 18 22 25 29 32 35
29 42 51 54 61 63 59 53 51 51 50 52 57 62 62 65 67 69 60 59 54 50 47 44 42 40 35 30 26 22 19 16 12 6 0 4 6 9 12 16 19 22 26 30
34 42 45 47 54 53 54 53 56 55 54 57 53 50 51 52 50 54 54 52 51 49 45 44 41 38 34 30 27 24 20 17 13 9 6 6 8 10 12 14 16 19 22 25
49 50 54 55 49 45 44 44 48 52 49 52 57 53 50 51 51 49 48 50 48 45 40 36 35 34 30 28 25 22 20 16 12 10 10 12 13 15 16 17 18 20 21 24
Wind_Direction_850mb
245 255 181 211 236 217 216 228 219 250 244 254 264 265 274 281 278 259 246 239 233 221 212 211 213 220 234 254 277 295 306 314 318 322 324 324 326 326 324 325 322 320 319 317
254 255 197 249 255 240 231 237 243 252 259 260 268 277 281 278 275 255 246 244 236 223 213 208 211 220 238 262 282 303 316 320 324 324 327 328 328 327 327 326 325 324 325 324
251 196 118 270 247 240 255 240 232 244 252 273 271 267 264 269 254 253 251 241 227 221 212 204 208 221 240 263 292 312 320 323 327 329 330 330 330 331 330 329 330 333 331 329
248 92 228 250 269 206 231 251 239 245 261 260 263 272 275 264 255 252 243 233 224 217 201 198 203 216 236 270 303 317 322 327 331 329 330 331 332 335 333 333 337 337 337 339
230 232 252 284 220 160 200 265 247 219 244 254 259 288 281 265 262 259 252 236 223 211 192 192 201 210 231 278 311 321 328 331 331 330 332 335 335 338 339 338 339 340 342 342
233 239 244 248 266 156 104 269 260 221 240 243 148 240 259 273 259 236 226 218 206 189 186 190 196 205 230 282 309 324 331 334 333 333 336 337 337 340 344 342 342 342 343 348
232 243 247 253 141 135 192 251 155 210 224 227 195 219 244 248 210 211 209 199 186 181 183 188 192 200 227 275 309 324 330 330 331 334 337 336 339 345 346 345 344 347 346 346
231 246 254 177 136 210 240 256 263 230 224 202 222 223 224 218 200 194 187 178 180 179 183 187 191 203 223 269 308 323 328 330 331 335 338 341 342 346 351 348 349 349 346 339
200 207 208 195 218 228 238 245 246 234 237 228 223 218 211 200 194 187 181 178 182 186 185 187 194 206 226 273 311 322 328 330 331 339 344 347 347 350 354 353 354 350 339 336
240 232 233 226 228 234 233 235 242 246 249 240 222 220 207 198 190 184 183 183 183 186 186 191 197 204 236 287 315 326 329 331 333 342 349 355 352 354 1 357 357 344 339 337
242 244 245 249 245 244 240 243 235 236 240 231 226 223 210 196 192 188 185 185 187 188 190 192 197 209 241 291 313 323 326 330 338 347 351 359 6 1 5 5 353 343 341 338
229 229 225 241 249 250 240 234 236 233 226 228 233 223 208 198 194 189 186 186 186 189 190 193 198 210 240 286 308 316 327 337 344 354 356 359 359 11 14 11 12 0 351 348
237 239 253 252 253 258 241 238 240 231 230 231 224 225 206 194 190 188 186 188 193 191 189 194 199 206 239 281 300 317 335 344 352 357 358 4 3 3 3 15 18 19 15 0
241 246 251 250 251 254 250 248 242 239 232 228 225 213 203 188 188 188 186 192 191 190 191 192 196 205 232 266 295 317 337 346 357 359 2 6 7 8 8 9 9 15 24 22
240 242 244 252 261 256 253 240 221 219 218 212 211 205 194 186 186 188 185 192 187 189 190 191 194 205 224 246 276 309 334 346 357 2 5 6 9 12 14 14 15 15 16 26
247 247 248 250 248 252 241 224 221 210 207 199 196 196 188 187 189 185 190 190 187 188 190 191 195 202 214 229 251 288 319 339 3 11 7 7 12 16 19 20 20 21 22 26
250 249 249 252 250 239 230 232 221 206 200 201 196 186 183 184 183 186 190 188 186 186 187 189 192 197 198 216 218 238 296 359 15 17 11 17 17 20 23 23 25 26 26 30
254 254 258 259 255 239 229 228 223 208 197 187 189 185 182 182 185 188 188 184 179 179 182 187 192 190 196 201 193 203 189 77 36 22 24 24 23 25 26 27 26 26 28 30
280 268 263 261 257 239 232 218 204 193 186 188 184 184 184 183 190 190 185 183 182 182 183 185 185 184 192 192 187 190 173 128 62 40 37 33 31 30 29 31 30 28 26 27
277 268 262 259 251 240 216 204 196 188 189 185 181 180 181 185 190 186 185 184 185 185 184 183 181 183 192 187 183 183 169 142 104 63 50 44 40 38 35 32 32 30 29 28
286 275 267 252 225 213 212 201 195 185 180 182 178 182 184 185 185 185 182 181 180 183 182 181 182 185 188 183 182 180 173 157 130 90 63 51 50 46 40 35 31 31 30 29
280 253 222 198 188 176 183 186 182 170 163 171 179 185 180 177 177 179 185 185 181 181 181 181 180 183 187 184 183 181 179 164 141 105 72 54 53 48 45 39 34 31 29 27
228 206 175 171 170 160 161 160 155 157 167 175 178 179 179 177 181 179 178 180 185 181 179 179 180 184 184 184 184 183 184 171 152 125 97 69 54 49 43 39 33 28 25 25
163 169 163 156 148 145 136 139 147 159 166 167 173 179 180 176 176 182 182 177 176 177 178 180 182 183 182 187 189 189 182 174 170 157 96 63 51 39 36 32 26 21 18 18
115 120 127 134 134 127 132 140 148 151 156 162 169 173 177 178 182 173 175 176 175 177 179 180 183 183 186 190 194 196 188 187 183 188 242 7 15 12 13 15 13 11 9 9
106 104 110 116 119 129 137 144 147 150 158 156 156 161 166 168 170 170 168 172 173 177 181 184 185 187 191 195 198 200 203 198 200 206 235 281 306 322 334 343 347 350 353 355
96 101 103 104 108 118 130 138 143 142 151 152 149 150 156 158 161 165 166 169 173 176 179 184 190 194 198 203 207 210 216 216 224 239 260 278 290 300 309 317 324 329 333 336